#timestamp,LO_Frequency,Hit,StdDev 
1621879215.2,286046996.5,N
1621879235.1,286047001.2,N
1621879236.0,286047001.2,N
1621879255.8,286046998.2,N
1621879275.7,286046996.7,N
1621879295.5,286046996.9,N
1621879315.3,286046996.8,N
1621879335.2,286046997.2,N
1621879355.0,286046997.8,N
1621879355.9,286046997.8,N
1621879375.7,286046997.7,N
1621879395.6,286046997.7,N
1621879415.4,286047001.0,N
1621879435.3,286046998.4,N
1621879455.1,286046999.0,N
1621879456.0,286046999.0,N
1621879475.8,286046999.0,N
1621879495.7,286046998.9,N
1621879515.5,286046998.7,N
1621879535.3,286047001.2,N
1621879555.2,286046998.4,N
1621879575.0,286047002.2,N
1621879575.9,286047002.2,N
1621879595.8,286047001.5,N
1621879615.6,286047007.7,Y
1621879635.4,286047008.5,P
1621879655.3,286047006.1,N
1621879675.1,286047006.6,N
1621879695.9,286047007.3,N
1621879715.7,286047003.6,N
1621879735.5,286047003.4,N
1621879755.4,286047004.3,N
1621879775.2,286047001.8,N
1621879795.0,286047004.8,N
1621879795.9,286047004.8,N
1621879815.8,286047006.8,N
1621879835.6,286047008.9,Y
1621879855.5,286047005.0,P
1621879875.3,286047005.2,P
1621879895.1,286047007.0,P
1621879915.9,286047004.5,Y
1621879935.7,286046999.3,P
1621879955.6,286046998.4,N
1621879975.4,286047000.7,N
1621879995.2,286046997.0,N
1621880015.1,286046997.6,N
1621880016.0,286046997.6,N
1621880035.8,286046997.2,N
1621880055.7,286046997.3,N
1621880075.5,286046995.4,N
1621880095.3,286046995.2,N
1621880115.2,286046998.0,N
1621880135.0,286046999.3,N
1621880135.9,286046999.3,N
1621880155.7,286046997.0,N
1621880175.6,286046999.4,N
1621880195.4,286046996.9,N
1621880215.3,286046996.8,N
1621880235.1,286046997.3,N
1621880236.0,286046997.3,N
1621880255.8,286046995.3,N
1621880275.7,286046998.0,N
1621880295.5,286046995.2,N
1621880315.3,286046999.2,N
1621880335.2,286047003.7,N
1621880355.0,286047003.2,N
1621880355.9,286047003.2,N
1621880375.8,286047001.9,N
1621880395.6,286047000.3,N
1621880415.4,286047000.8,N
1621880435.3,286046999.4,N
1621880455.1,286046999.0,N
1621880475.9,286046999.3,N
1621880495.7,286046996.8,N
1621880515.5,286046997.4,N
1621880535.4,286046995.4,N
1621880555.2,286046995.7,N
1621880575.0,286046995.9,N
1621880575.9,286046995.9,N
1621880595.8,286046996.3,N
1621880615.6,286046994.0,N
1621880635.5,286046992.1,Y
1621880655.3,286046995.0,P
1621880675.1,286046997.4,N
1621880695.9,286046997.8,N
1621880715.7,286046998.6,N
1621880735.6,286046998.1,N
1621880755.4,286047000.7,N
1621880775.2,286046998.7,N
1621880795.1,286046999.3,N
1621880796.0,286046999.3,N
1621880815.8,286046996.6,N
1621880835.6,286046999.6,N
1621880855.5,286046998.2,N
1621880875.3,286047000.8,N
1621880895.2,286046999.3,N
1621880915.9,286046999.1,N
1621880935.7,286046999.6,N
1621880955.6,286046996.5,N
1621880975.4,286046999.2,N
1621880995.2,286046999.5,N
1621881015.1,286046997.5,N
1621881016.0,286046997.5,N
1621881035.8,286046998.0,N
1621881055.7,286046995.7,Y
1621881075.5,286046995.3,P
1621881095.3,286046997.7,N
1621881115.2,286046995.1,P
1621881135.0,286046998.0,N
1621881135.9,286046998.0,N
1621881155.8,286046996.6,N
1621881175.6,286047000.6,N
1621881195.4,286047000.9,N
1621881215.3,286047001.1,N
1621881235.1,286046996.7,N
1621881255.8,286046998.0,N
1621881275.7,286046997.6,N
1621881295.5,286046997.8,N
1621881315.4,286046998.0,N
1621881335.2,286046997.3,N
1621881355.0,286046996.8,N
1621881355.9,286046996.8,N
1621881375.8,286046997.7,N
1621881395.6,286046997.7,N
1621881415.4,286046997.1,N
1621881435.3,286046998.0,N
1621881455.1,286046997.2,N
1621881475.9,286046997.5,N
1621881495.7,286046996.7,N
1621881515.5,286046997.1,N
1621881535.4,286046996.8,N
1621881555.2,286046997.8,N
1621881575.0,286046997.2,N
1621881576.0,286046997.2,N
1621881595.8,286046997.8,N
1621881615.6,286046997.7,N
1621881635.5,286046997.3,N
1621881655.3,286046998.0,N
1621881675.1,286046997.2,N
1621881695.9,286046995.2,Y
1621881715.7,286046998.4,P
1621881735.6,286046998.9,P
1621881755.4,286046997.1,P
1621881775.2,286046996.5,Y
1621881795.1,286046998.6,P
1621881796.0,286046998.6,P
1621881815.8,286047000.6,N
1621881835.6,286047000.8,N
1621881885.5,286046999.9,E
1621881895.4,286047000.3,N
1621881915.3,286047001.1,P
1621881935.1,286046998.1,P
1621881955.9,286046999.7,N
1621881975.7,286047002.5,N
1621881995.5,286047002.0,N
1621882015.4,286047001.6,N
1621882035.2,286047002.5,N
1621882055.0,286047001.5,N
1621882055.9,286047001.5,N
1621882075.8,286047002.0,N
1621882095.6,286047002.3,N
1621882115.5,286047000.2,N
1621882135.3,286047002.1,N
1621882155.1,286047003.3,N
1621882175.9,286047003.8,N
1621882195.7,286047001.6,N
1621882215.5,286047001.7,N
1621882235.4,286047003.6,N
1621882255.2,286047003.7,N
1621882275.1,286047006.5,Y
1621882276.0,286047006.5,P
1621882295.8,286047008.6,P
1621882315.6,286047010.5,P
1621882335.5,286047009.5,N
1621882355.3,286047016.5,Y
1621882375.2,286047010.4,P
1621882395.9,286047008.9,P
1621882415.7,286047008.8,P
1621882435.6,286047006.8,Y
1621882455.4,286046995.3,P
1621882475.2,286046997.5,N
1621882495.1,286046997.4,N
1621882496.0,286046997.4,N
1621882515.8,286046995.9,N
1621882535.7,286046993.3,N
1621882555.5,286046994.2,N
1621882575.3,286046993.5,N
1621882595.2,286046996.1,N
1621882615.0,286046993.9,N
1621882615.9,286046993.9,N
1621882635.7,286046993.8,N
1621882655.6,286046993.4,N
1621882675.4,286046994.2,N
1621882695.3,286046995.7,N
1621882715.1,286046995.5,N
1621882716.0,286046995.5,N
1621882735.8,286046996.3,N
1621882755.7,286046996.2,N
1621882775.5,286046996.0,N
1621882795.3,286046994.0,N
